Essaouira, Morocco

3:25 PM WEST on April 24, 2017 (GMT +0100)
Mogador

Weather History for GMMI - February, 2014

Change the Weather History Date:

Thursday, February 27, 2014

  Actual Average Record
Temperature  
Mean Temperature 65 °F -  
Max Temperature 75 °F 66 °F - ()
Min Temperature 55 °F 55 °F - ()
Growing Degree Days 15 (Base 50)    
Moisture  
Dew Point 43 °F    
Average Humidity 52    
Maximum Humidity 79    
Minimum Humidity 12    
Precipitation  
Precipitation 0.00 in 0.05 in - ()
Sea Level Pressure  
Sea Level Pressure 30.33 in    
Wind  
Wind Speed 16 mph ()    
Max Wind Speed 31 mph    
Max Gust Speed -    
Visibility 5.0 miles    
Events      
T = Trace of Precipitation, MM = Missing Value Source: Averaged Metar Reports

Daily Weather History Graph

Daily Weather History Graph

Search for Another Location

Airport or City:

Trip Planner

Search our weather history database for the weather conditions in past years. The results will help you decide how hot, cold, wet, or windy it might be!

Date:

Astronomy

Feb. 27, 2014 Rise Set
Actual Time 7:08 AM WET 6:35 PM WET
Civil Twilight 6:44 AM WET 7:00 PM WET
Nautical Twilight 6:15 AM WET 7:28 PM WET
Astronomical Twilight 5:47 AM WET 7:56 PM WET
Moon 5:25 AM WET (2/27) 4:49 PM WET (2/27)
Length of Visible Light 12h 15m
Length of Day
11h 27m
Waning Crescent, 5% of the Moon is Illuminated
Feb 27
Waning Crescent
Mar 1
New
Mar 8
First Quarter
Mar 16
Full
Mar 24
Last Quarter

Hourly Weather History & Observations

Time (WET) Temp. Dew Point Humidity Pressure Visibility Wind Dir Wind Speed Gust Speed Precip Events Conditions
12:00 AM 57 °F 52 °F 79% 30.33 in - NNE 29.1 mph - -  
3:00 AM 55 °F 49 °F 74% 30.33 in - NNE 17.9 mph - -  
6:00 AM 55 °F 48 °F 69% 30.30 in - NNE 20.1 mph - -  
6:00 AM 55.4 °F 44.6 °F 67% 30.33 in 5.0 mi East 16.1 mph - N/A   Unknown
7:00 AM 55.4 °F 44.6 °F 67% 30.33 in 5.0 mi East 16.1 mph - N/A   Unknown
8:00 AM 55.4 °F 44.6 °F 67% 30.33 in 5.0 mi East 11.5 mph - N/A   Unknown
9:00 AM 55 °F 48 °F 69% 30.35 in 5 mi NNE 6.9 mph - -  
9:00 AM 57.2 °F 44.6 °F 63% 30.33 in 5.0 mi East 13.8 mph - N/A   Unknown
10:00 AM 62.6 °F 44.6 °F 52% 30.36 in 5.0 mi ENE 11.5 mph - N/A   Unknown
11:00 AM 68.0 °F 37.4 °F 33% 30.39 in 5.0 mi ENE 11.5 mph - N/A   Unknown
12:00 PM 61 °F 49 °F 55% 30.40 in 5 mi NNE 13.8 mph - -  
12:00 PM 71.6 °F 32.0 °F 23% 30.36 in 5.0 mi East 16.1 mph - N/A   Unknown
1:00 PM 73.4 °F 19.4 °F 13% 30.33 in 5.0 mi ENE 16.1 mph - N/A   Unknown
2:00 PM 73.4 °F 26.6 °F 18% 30.30 in 5.0 mi East 16.1 mph - N/A   Unknown
3:00 PM 63 °F 49 °F 49% 30.30 in - NNE 22.4 mph - -  
3:00 PM 75.2 °F 19.4 °F 12% 30.30 in 5.0 mi East 16.1 mph - N/A   Unknown
4:00 PM 69.8 °F 48.2 °F 46% 30.30 in 5.0 mi NNE 16.1 mph - N/A   Unknown
5:00 PM 71.6 °F 44.6 °F 38% 30.27 in 5.0 mi NE 13.8 mph - N/A   Unknown
6:00 PM 61 °F 53 °F 68% 30.27 in - NNE 31.3 mph - -  
6:00 PM 68.0 °F 48.2 °F 49% 30.30 in 5.0 mi NNE 13.8 mph - N/A   Unknown
9:00 PM 59 °F 53 °F 75% 30.33 in - NNE 31.3 mph - -